Weather History for KLXN - February, 2014

Change the Weather History Date:

Sunday, February 2, 2014

  Actual Average (KEAR) Record (KEAR)
Temperature  
Mean Temperature 10 °F 26 °F  
Max Temperature 27 °F 37 °F 69 °F (1962)
Min Temperature -8 °F 14 °F -18 °F (1996)
Degree Days  
Heating Degree Days 56 39  
Month to date heating degree days 79  
Since 1 July heating degree days 3973  
Cooling Degree Days 0 0  
Month to date cooling degree days 0  
Year to date cooling degree days 0  
Moisture  
Dew Point 3 °F    
Average Humidity 79    
Maximum Humidity 92    
Minimum Humidity 63    
Precipitation  
Precipitation 0.00 in - 0.50 in (1982)
Sea Level Pressure  
Sea Level Pressure 30.18 in    
Wind  
Wind Speed 6 mph (WSW)    
Max Wind Speed 16 mph    
Max Gust Speed 22 mph    
Visibility 10 miles    
Events      
T = Trace of Precipitation, MM = Missing Value Source: NWS Daily Summary

Daily Weather History Graph

Daily Weather History Graph

Search for Another Location

Airport or City:

Trip Planner

Search our weather history database for the weather conditions in past years. The results will help you decide how hot, cold, wet, or windy it might be!

Date:

Astronomy

Feb. 02, 2014 Rise Set
Actual Time 7:48 AM CST 5:57 PM CST
Civil Twilight 7:19 AM CST 6:26 PM CST
Nautical Twilight 6:46 AM CST 6:59 PM CST
Astronomical Twilight 6:14 AM CST 7:31 PM CST
Moon 9:14 AM CST (2/2) 9:45 PM CST (2/2)
Length of Visible Light 11h 07m
Length of Day
10h 09m
Waxing Crescent, 11% of the Moon is Illuminated
Feb 2
Waxing Crescent
Feb 6
First Quarter
Feb 14
Full
Feb 22
Last Quarter
Mar 1
New

Hourly Weather History & Observations

Time (CST) Temp. Windchill Dew Point Humidity Pressure Visibility Wind Dir Wind Speed Gust Speed Precip Events Conditions
12:15 AM -0.6 °F -14.9 °F -4.2 °F 85% 30.23 in 10.0 mi NW 8.1 mph - N/A   Clear
12:35 AM -1.3 °F -16.8 °F -4.7 °F 85% 30.24 in 10.0 mi NW 9.2 mph - N/A   Clear
12:55 AM -2.0 °F -15.4 °F -6.0 °F 83% 30.23 in 10.0 mi NW 6.9 mph - N/A   Clear
1:15 AM -3.1 °F -15.2 °F -6.7 °F 85% 30.23 in 10.0 mi WNW 5.8 mph - N/A   Clear
1:35 AM -3.1 °F -15.2 °F -6.5 °F 85% 30.23 in 10.0 mi WNW 5.8 mph - N/A   Clear
1:55 AM -3.1 °F -13.5 °F -6.9 °F 84% 30.22 in 10.0 mi West 4.6 mph - N/A   Clear
2:15 AM -2.9 °F -11.2 °F -6.7 °F 84% 30.23 in 10.0 mi WNW 3.5 mph - N/A   Clear
2:35 AM -3.5 °F -13.9 °F -6.9 °F 85% 30.22 in 10.0 mi WNW 4.6 mph - N/A   Clear
2:55 AM -4.4 °F -15.0 °F -8.3 °F 83% 30.22 in 10.0 mi West 4.6 mph - N/A   Clear
3:15 AM -6.2 °F -20.4 °F -10.5 °F 82% 30.22 in 10.0 mi NW 6.9 mph - N/A   Clear
3:35 AM -4.2 °F -18.0 °F -8.3 °F 82% 30.23 in 10.0 mi NW 6.9 mph - N/A   Clear
3:55 AM -5.1 °F -17.6 °F -9.4 °F 82% 30.23 in 10.0 mi WNW 5.8 mph - N/A   Clear
4:15 AM -6.5 °F - -10.8 °F 82% 30.23 in 10.0 mi Calm Calm - N/A   Clear
4:35 AM -7.2 °F -16.1 °F -11.9 °F 80% 30.23 in 10.0 mi West 3.5 mph - N/A   Clear
4:55 AM -7.2 °F -18.3 °F -11.9 °F 80% 30.22 in 10.0 mi WNW 4.6 mph - N/A   Clear
5:15 AM -4.7 °F -13.2 °F -8.3 °F 84% 30.23 in 10.0 mi West 3.5 mph - N/A   Clear
5:35 AM -6.7 °F -15.5 °F -11.4 °F 80% 30.22 in 10.0 mi West 3.5 mph - N/A   Clear
5:55 AM -8.1 °F - -13.0 °F 79% 30.22 in 10.0 mi Calm Calm - N/A   Clear
6:15 AM -7.6 °F -16.5 °F -12.1 °F 81% 30.21 in 10.0 mi West 3.5 mph - N/A   Clear
6:35 AM -7.6 °F - -12.1 °F 81% 30.21 in 10.0 mi Calm Calm - N/A   Clear
6:55 AM -8.5 °F -17.6 °F -13.4 °F 79% 30.21 in 10.0 mi NW 3.5 mph - N/A   Clear
7:15 AM -8.0 °F -21.0 °F -12.5 °F 81% 30.21 in 10.0 mi NW 5.8 mph - N/A   Clear
7:35 AM -6.7 °F - -11.4 °F 80% 30.22 in 10.0 mi Calm Calm - N/A   Clear
7:55 AM -4.9 °F -13.4 °F -9.4 °F 81% 30.22 in 10.0 mi WNW 3.5 mph - N/A   Clear
8:15 AM -6.5 °F - -10.8 °F 82% 30.22 in 10.0 mi Calm Calm - N/A   Clear
8:35 AM -4.9 °F - -9.0 °F 82% 30.23 in 10.0 mi Calm Calm - N/A   Clear
8:55 AM -2.2 °F - -6.2 °F 83% 30.23 in 10.0 mi Calm Calm - N/A   Clear
9:15 AM 0.3 °F - -3.1 °F 85% 30.24 in 10.0 mi Calm Calm - N/A   Clear
9:35 AM 2.3 °F - -1.1 °F 86% 30.24 in 10.0 mi Calm Calm - N/A   Clear
9:55 AM 5.2 °F - 1.9 °F 86% 30.24 in 10.0 mi Calm Calm - N/A   Clear
10:15 AM 8.4 °F - 5.2 °F 87% 30.24 in 10.0 mi Calm Calm - N/A   Clear
10:35 AM 9.5 °F - 5.9 °F 85% 30.23 in 10.0 mi Calm Calm - N/A   Clear
10:55 AM 14.0 °F 5.1 °F 11.1 °F 88% 30.23 in 10.0 mi South 5.8 mph - N/A   Clear
11:15 AM 17.2 °F 4.5 °F 14.2 °F 88% 30.23 in 10.0 mi SW 11.5 mph - N/A   Clear
11:35 AM 18.7 °F 8.6 °F 15.1 °F 86% 30.23 in 10.0 mi WSW 8.1 mph - N/A   Clear
11:55 AM 20.3 °F 9.8 °F 13.8 °F 76% 30.22 in 10.0 mi WSW 9.2 mph - N/A   Clear
12:15 PM 21.7 °F 8.5 °F 13.8 °F 72% 30.22 in 10.0 mi SW 15.0 mph - N/A   Clear
12:35 PM 21.9 °F 8.2 °F 13.5 °F 70% 30.21 in 10.0 mi SW 16.1 mph 21.9 mph N/A   Clear
12:55 PM 22.1 °F 11.3 °F 13.6 °F 70% 30.20 in 10.0 mi WSW 10.4 mph - N/A   Clear
1:15 PM 23.0 °F 13.9 °F 14.2 °F 69% 30.19 in 10.0 mi South 8.1 mph - N/A   Clear
1:35 PM 23.4 °F 13.5 °F 14.4 °F 68% 30.18 in 10.0 mi SW 9.2 mph - N/A   Clear
2:00 PM 24.1 °F 13.7 °F 15.3 °F 69% 30.16 in 10.0 mi SW 10.4 mph - N/A   Clear
2:15 PM 25.2 °F 15.7 °F 15.3 °F 66% 30.15 in 10.0 mi SW 9.2 mph - N/A   Clear
2:35 PM 25.7 °F 16.4 °F 15.4 °F 65% 30.15 in 10.0 mi WSW 9.2 mph - N/A   Clear
3:00 PM 25.7 °F 16.4 °F 15.6 °F 66% 30.14 in 10.0 mi WSW 9.2 mph - N/A   Clear
3:15 PM 26.4 °F 16.6 °F 16.0 °F 65% 30.13 in 10.0 mi SW 10.4 mph - N/A   Clear
3:35 PM 27.0 °F 18.0 °F 16.0 °F 63% 30.12 in 10.0 mi SSW 9.2 mph - N/A   Clear
3:55 PM 26.8 °F 15.9 °F 16.3 °F 65% 30.13 in 10.0 mi SSW 12.7 mph - N/A   Clear
4:15 PM 25.7 °F 13.1 °F 15.3 °F 65% 30.13 in 10.0 mi SW 16.1 mph - N/A   Clear
4:35 PM 25.5 °F 15.5 °F 15.6 °F 66% 30.13 in 10.0 mi SSW 10.4 mph - N/A   Clear
4:55 PM 25.2 °F 17.3 °F 15.6 °F 67% 30.13 in 10.0 mi SSW 6.9 mph - N/A   Clear
5:15 PM 24.4 °F 14.2 °F 15.4 °F 69% 30.13 in 10.0 mi SW 10.4 mph - N/A   Clear
5:35 PM 24.1 °F 15.2 °F 15.1 °F 69% 30.13 in 10.0 mi SW 8.1 mph - N/A   Clear
5:55 PM 22.3 °F 13.0 °F 14.4 °F 72% 30.13 in 10.0 mi SW 8.1 mph - N/A   Clear
6:15 PM 19.2 °F 10.2 °F 12.9 °F 76% 30.12 in 10.0 mi SSW 6.9 mph - N/A   Clear
6:35 PM 20.5 °F 10.0 °F 13.8 °F 75% 30.13 in 10.0 mi SW 9.2 mph - N/A   Clear
6:55 PM 19.4 °F 10.4 °F 13.1 °F 76% 30.13 in 10.0 mi SSW 6.9 mph - N/A   Clear
7:15 PM 17.4 °F 9.1 °F 11.8 °F 79% 30.13 in 10.0 mi SSW 5.8 mph - N/A   Clear
7:35 PM 18.5 °F 9.3 °F 12.7 °F 78% 30.13 in 10.0 mi SW 6.9 mph - N/A   Clear
7:55 PM 19.4 °F 11.5 °F 12.9 °F 76% 30.14 in 10.0 mi SW 5.8 mph - N/A   Clear
8:15 PM 17.1 °F 10.0 °F 10.9 °F 77% 30.13 in 10.0 mi SSW 4.6 mph - N/A   Clear
8:35 PM 16.9 °F 8.5 °F 10.8 °F 77% 30.13 in 10.0 mi SSW 5.8 mph - N/A   Clear
8:55 PM 16.0 °F 8.8 °F 9.7 °F 76% 30.12 in 10.0 mi SSW 4.6 mph - N/A   Clear
9:15 PM 16.9 °F - 11.5 °F 79% 30.12 in 10.0 mi Calm Calm - N/A   Clear
9:35 PM 15.6 °F - 10.9 °F 82% 30.12 in 10.0 mi Calm Calm - N/A   Clear
9:50 PM 9.7 °F - 6.3 °F 86% 30.12 in 10.0 mi Calm Calm - N/A   Clear
10:15 PM 10.8 °F - 8.8 °F 92% 30.12 in 10.0 mi Calm Calm - N/A   Clear
10:35 PM 8.6 °F - 5.5 °F 87% 30.12 in 10.0 mi Calm Calm - N/A   Clear
10:55 PM 2.8 °F - -0.2 °F 87% 30.12 in 10.0 mi Calm Calm - N/A   Clear
11:15 PM 1.6 °F -8.0 °F -1.7 °F 86% 30.13 in 10.0 mi North 4.6 mph - N/A   Clear
11:35 PM 2.3 °F -10.2 °F -0.8 °F 87% 30.12 in 10.0 mi North 6.9 mph - N/A   Clear
11:55 PM 2.3 °F -7.2 °F -1.1 °F 86% 30.13 in 10.0 mi North 4.6 mph - N/A   Clear